Location: Val-d'Or
(48.1170°N, 77.7670°W)
Time: 11:57:32
(UTC-04:00)

ISS - Pass Details

Date: 21 May 2018
Orbit: 402 x 407 km, 51.6° (Epoch: 23 May)

Event Time Altitude Azimuth Distance (km) Brightness Sun altitude
Rises 04:07:55 0° 291° (WNW) 2,320 -0.2 -10.7°
Reaches altitude 10° 04:10:04 10° 284° (WNW) 1,457 -1.3 -10.4°
Maximum altitude 04:13:09 39° 213° (SSW) 615 -3.4 -10.1°
Drops below altitude 10° 04:16:13 10° 143° (SE) 1,450 -1.1 -9.7°
Sets 04:18:21 0° 135° (SE) 2,306 0.0 -9.5°
